Regional Weather Roundup
Issued by NWS San Diego, CA

Home | Current Version | Previous Version | Text Only | Print | Product List | Glossary On
Versions: 1 2 3 4 5 6 7 8 9 10 11 12 13 14 15 16 17 18 19 20 21 22 23 24 25 26 27 28 29 30 31 32 33 34 35 36 37 38 39 40 41 42 43 44 45 46 47 48 49 50
000
ASUS46 KSGX 270404
RWRSGX

SAN DIEGO HOURLY WEATHER ROUNDUP
NATIONAL WEATHER SERVICE SAN DIEGO CA
900 PM PDT FRI MAY 26 2017

NOTE: "FAIR" INDICATES FEW OR NO CLOUDS BELOW 12,000 FEET WITH NO
SIGNIFICANT WEATHER AND/OR OBSTRUCTIONS TO VISIBILITY.

CAZ042-043-060-061-PZZ750-775-270500-

GREATER SAN DIEGO AREA

CITY           SKY/WX    TMP DP  RH WIND       PRES   REMARKS
SAN DIEGO AP   PTCLDY    65  54  67 NW7       30.02R
NATIONAL CITY    N/A     64  55  72 W1        30.00R
CHULA VISTA      N/A     63  56  77 NW3       29.93R
IMPERIAL BEACH CLEAR     63  53  70 NW5       30.01S
BROWN FIELD    MOCLDY    60  52  74 W5        30.00S
MIRAMAR MCAS   PTCLDY    63  51  65 NW3       30.00R
MONTGOMERY FLD CLEAR     62  51  67 N8        30.01R

$$

NORTH SAN DIEGO COUNTY

CITY           SKY/WX    TMP DP  RH WIND       PRES   REMARKS
CAMP PENDLETON CLEAR     61  54  77 CALM      29.99S
OCEANSIDE AP   CLEAR     62  54  74 CALM      29.99S
OCEANSIDE HBR    N/A     63  57  81 W2        30.02R
VISTA            N/A     60  55  82 CALM      29.98R
CARLSBAD       CLEAR     62  56  80 W3        30.00R
DEL MAR          N/A     61  56  84 CALM      30.02R
LA JOLLA SCRIP   N/A     61  57  85 NW3       30.00R
FALLBROOK        N/A     59  56  89 CALM      30.01R
ESCONDIDO        N/A     62  53  72 W5        30.01R
SAN MARCOS       N/A     60  53  78 CALM      30.02R
POWAY            N/A     62  51  69 CALM      30.02R

$$

EAST SAN DIEGO COUNTY

CITY           SKY/WX    TMP DP  RH WIND       PRES   REMARKS
RAMONA         CLOUDY    58  51  78 W6        30.01R
SANTEE LAKES     N/A     62  54  73 CALM      29.99R
LA MESA          N/A     61  53  73 CALM      29.93R
JAMUL            N/A     60  52  74 CALM      30.00R
DESCANSO N       N/A     51  48  88 W1        29.94S
CAMPO            N/A     53  48  83 SW3       29.98R

$$

ORANGE COUNTY AND THE LOS ANGELES BASIN

CITY           SKY/WX    TMP DP  RH WIND       PRES   REMARKS
JOHN WAYNE AP  MOCLDY    64  50  60 W6        30.00R
LAGUNA BEACH     N/A    N/A N/A N/A N3        29.95R
LAKE FOREST FR   N/A     60  49  66 W3        29.89S
HUNTINGTON BCH   N/A     63  56  79 W6        30.01R
LOS ALAMITOS   PTCLDY    62  49  63 W8        29.99R
FULLERTON      CLOUDY    64  50  60 W5        29.98R
LONG BEACH     MOCLDY    63  49  60 NW9       29.99R
L.A. AP        PTCLDY    61  53  75 SW9       30.00R
L.A. DOWNTOWN  CLOUDY    64  50  60 CALM      29.99R

$$

THE INLAND EMPIRE

CITY           SKY/WX    TMP DP  RH WIND       PRES   REMARKS
CORONA         CLEAR     62  51  67 W9        29.99R
CHINO          CLEAR     62  50  64 SW8       30.00R
ONTARIO        PTCLDY    62  49  62 SW10      29.98R
SAN BERNARDINO PTCLDY    64  48  55 SW10      29.99
RIVERSIDE AP   CLEAR     62  51  67 W10       29.99R
MORENO VALLEY    N/A     60  54  81 NW7       28.12R
MARCH ARB      CLEAR     60  49  69 NW7       29.99R
HORSETHIEF CYN   N/A     60  46  59 W3        29.98R
PERRIS           N/A     61  53  73 NW5       29.97R
FRENCH VALLEY  NOT AVBL
TEMECULA         N/A     59  53  80 SW3       30.04R

$$

SAN BERNARDINO AND RIVERSIDE COUNTY MOUNTAINS

CITY           SKY/WX    TMP DP  RH WIND       PRES   REMARKS
BIG BEAR AP    CLEAR     52  16  24 W3        30.10R
PINE COVE        N/A     57  11  16 N6        29.90R

$$

SOUTHERN DESERT INCLUDING THE COACHELLA VALLEY

CITY           SKY/WX    TMP DP  RH WIND       PRES   REMARKS
PALM SPRINGS   CLEAR     78  47  33 NW22G31   29.80R
PALM DESERT      N/A     79  49  34 N5        27.46S
THERMAL        CLEAR     79  48  33 NW21G29   29.76R
BLYTHE         CLEAR     86  40  19 SW14      29.76R
IMPERIAL AP    LGT RAIN  77  47  34 W15       29.77R
EL CENTRO NAS  CLEAR     78  43  28 W18       29.80R
MEXICALI       CLEAR     79  57  47 SE3       29.80R

$$

UPPER DESERT

CITY           SKY/WX    TMP DP  RH WIND       PRES   REMARKS
VICTORVILLE AP CLEAR     59  43  55 W7        29.95R
HESPERIA         N/A     56  47  71 W7        30.00S
PALMDALE       CLEAR     58  46  64 SW10      29.95R
LANCASTER      CLEAR     57  47  69 SW20      29.94R
EDWARDS AFB    CLEAR     59  47  63 SW21G28   29.90R
DAGGETT        CLEAR     71  40  32 W18       29.86R
29 PALMS N     CLEAR     79  27  14 NW10      29.90R
NEEDLES        CLEAR     89  28  11 SW10      29.76R

$$

REGIONAL REPORTS

CITY           SKY/WX    TMP DP  RH WIND       PRES   REMARKS
SANTA BARBARA  CLOUDY    60  52  74 W8        30.00R
SANDBERG       CLEAR     48  46  93 SW6       30.03R
LAS VEGAS NV   CLEAR     83  16   8 SW13      29.76R
PHOENIX AZ     CLEAR     87  32  14 W9        29.80R
TIJUANA        PTCLDY    61  48  63 CALM      30.03R
ENSENADA NW      N/A     62  32  31 N6        29.98R

$$

OFFSHORE ISLANDS

CITY           SKY/WX    TMP DP  RH WIND       PRES   REMARKS
CATALINA ARPT  PTCLDY    54  52  93 W8        30.02R
SAN NICOLAS IS CLEAR     53  32  44 W9        30.01R

$$

MARINE AND OFFSHORE BUOY REPORTS

STATION/POSITION SKY/WX   TEMP    WIND        PRES    VSBY  SWELL
                          AIR SEA DIR/SP/G                  HT/PER/DIR
                          (F)     (DEG/KT/KT) (MB)    (MI)  (FT/S/D)
TANNER BANKS               60 63  310/  8/ 10 1015.8          5/310/11
S CLEMENTE BASIN           62 63  280/  8/ 10 1015.8          3/210/14
SAN NICOLAS IS.               59                N/A           3/290/11
SO. S. ROSA ISLA           57 58  300/ 10/ 12 1015.9          3/200/14
W. S. BARBARA CH           56 55  310/ 12/ 14 1016.0R
M. S. BARBARA CH           58 57  260/  8/ 10 1016.5R         2/250/11
S. MONICA BASIN            61 63  300/  8/ 12 1015.5R         2/190/15
S PEDRO CHANNEL               63                N/A           2/270/11
CMP PENDLETON NS              63                N/A           2/210/13
OCEANSIDE OFFSHR              63                N/A           2/200/14
TORREY PINES OTR              62                N/A           2/210/14
SAN DIEGO BAY                 68              1016.2
POINT LOMA SOUTH              65                N/A           3/190/14

$$




USA.gov is the U.S. government's official web portal to all federal, state and local government web resources and services.